Wetterdaten: Mittwoch, 18.11.2015
Datum Zeit Auen-Temp. Temp gefhlt Luftfeuchte Luftdruck Regen Wind Richtung Richtung Taupunkt Windben
18.11.2015 00:00 12,3 C 12,2 C 56 % 1016,7 hPa 0,0 mm 10,1 km/h (2 Bft) W-SW 247 3,8 C 5,2 km/h (1 Bft)
18.11.2015 00:05 12,3 C 12,3 C 56 % 1016,7 hPa 0,0 mm 8,5 km/h (2 Bft) W-SW 247 3,8 C 6,7 km/h (2 Bft)
18.11.2015 00:10 12,3 C 12,3 C 56 % 1016,5 hPa 0,0 mm 8,3 km/h (2 Bft) S 180 3,8 C 8,3 km/h (2 Bft)
18.11.2015 00:15 12,5 C 12,4 C 55 % 1016,5 hPa 0,0 mm 8,8 km/h (2 Bft) W 270 3,7 C 10,4 km/h (2 Bft)
18.11.2015 00:20 12,6 C 12,5 C 55 % 1016,5 hPa 0,0 mm 9,3 km/h (2 Bft) W-SW 247 3,8 C 11,9 km/h (2 Bft)
18.11.2015 00:25 13,0 C 12,9 C 54 % 1016,5 hPa 0,0 mm 9,6 km/h (2 Bft) W-SW 247 3,9 C 19,7 km/h (3 Bft)
18.11.2015 00:30 13,6 C 13,4 C 54 % 1016,4 hPa 0,0 mm 10,4 km/h (2 Bft) NW 315 4,5 C 15,3 km/h (3 Bft)
18.11.2015 00:35 14,4 C 14,1 C 53 % 1016,4 hPa 0,0 mm 12,9 km/h (3 Bft) W-SW 247 4,9 C 11,9 km/h (2 Bft)
18.11.2015 00:40 14,7 C 14,5 C 52 % 1016,4 hPa 0,0 mm 14,2 km/h (3 Bft) W 270 5,0 C 16,1 km/h (3 Bft)
18.11.2015 00:45 15,0 C 14,9 C 52 % 1016,4 hPa 0,0 mm 14,0 km/h (3 Bft) S 180 5,2 C 26,7 km/h (4 Bft)
18.11.2015 00:50 15,0 C 15,0 C 51 % 1015,8 hPa 0,0 mm 12,4 km/h (3 Bft) S-SW 202 4,9 C 8,5 km/h (2 Bft)
18.11.2015 00:55 15,1 C 15,2 C 51 % 1015,8 hPa 0,0 mm 11,1 km/h (2 Bft) W-NW 292 5,0 C 10,4 km/h (2 Bft)
18.11.2015 01:00 15,1 C 15,2 C 50 % 1015,8 hPa 0,0 mm 10,1 km/h (2 Bft) W 270 4,8 C 10,1 km/h (2 Bft)
18.11.2015 01:05 14,9 C 15,1 C 50 % 1015,8 hPa 0,0 mm 9,8 km/h (2 Bft) W-SW 247 4,6 C 20,2 km/h (4 Bft)
18.11.2015 01:10 15,0 C 15,1 C 50 % 1015,9 hPa 0,0 mm 9,6 km/h (2 Bft) W-SW 247 4,7 C 11,9 km/h (2 Bft)
18.11.2015 01:15 15,2 C 15,2 C 51 % 1015,9 hPa 0,0 mm 9,3 km/h (2 Bft) W-SW 247 5,1 C 22,0 km/h (4 Bft)
18.11.2015 01:20 15,6 C 15,5 C 50 % 1015,9 hPa 0,0 mm 11,9 km/h (2 Bft) W-NW 292 5,2 C 26,2 km/h (4 Bft)
18.11.2015 01:25 15,8 C 15,7 C 49 % 1015,9 hPa 0,0 mm 16,1 km/h (3 Bft) W-SW 247 5,1 C 32,9 km/h (5 Bft)
18.11.2015 01:30 15,9 C 15,8 C 49 % 1015,9 hPa 0,0 mm 16,6 km/h (3 Bft) W 270 5,2 C 21,2 km/h (4 Bft)
18.11.2015 01:35 15,7 C 15,7 C 49 % 1015,9 hPa 0,0 mm 15,3 km/h (3 Bft) W 270 5,0 C 16,6 km/h (3 Bft)
18.11.2015 01:40 15,7 C 15,7 C 49 % 1015,9 hPa 0,0 mm 14,8 km/h (3 Bft) W 270 5,0 C 43,0 km/h (6 Bft)
18.11.2015 01:45 15,4 C 15,5 C 50 % 1015,9 hPa 0,0 mm 15,0 km/h (3 Bft) W 270 5,0 C 15,3 km/h (3 Bft)
18.11.2015 01:50 15,4 C 15,4 C 51 % 1016,3 hPa 0,0 mm 16,3 km/h (3 Bft) W-SW 247 5,3 C 28,0 km/h (4 Bft)
18.11.2015 01:55 15,1 C 15,1 C 52 % 1016,3 hPa 0,0 mm 16,1 km/h (3 Bft) W-NW 292 5,3 C 27,7 km/h (4 Bft)
18.11.2015 02:00 14,9 C 14,9 C 53 % 1016,3 hPa 0,0 mm 14,0 km/h (3 Bft) W-SW 247 5,4 C 17,3 km/h (3 Bft)
18.11.2015 02:05 14,7 C 14,7 C 53 % 1016,3 hPa 0,0 mm 13,2 km/h (3 Bft) W 270 5,2 C 21,0 km/h (4 Bft)
18.11.2015 02:10 14,6 C 14,6 C 54 % 1016,4 hPa 0,0 mm 13,5 km/h (3 Bft) W 270 5,4 C 19,7 km/h (3 Bft)
18.11.2015 02:15 14,3 C 14,3 C 55 % 1016,4 hPa 0,0 mm 13,2 km/h (3 Bft) W-SW 247 5,4 C 13,7 km/h (3 Bft)
18.11.2015 02:20 14,1 C 14,1 C 56 % 1016,4 hPa 0,0 mm 11,7 km/h (2 Bft) W-SW 247 5,5 C 11,9 km/h (2 Bft)
18.11.2015 02:25 14,2 C 14,1 C 56 % 1016,4 hPa 0,0 mm 11,4 km/h (2 Bft) SW 225 5,6 C 12,4 km/h (3 Bft)
18.11.2015 02:30 14,4 C 14,3 C 56 % 1017,2 hPa 0,0 mm 14,0 km/h (3 Bft) W 270 5,7 C 38,8 km/h (5 Bft)
18.11.2015 02:35 14,3 C 14,1 C 56 % 1017,2 hPa 0,0 mm 15,5 km/h (3 Bft) W 270 5,6 C 27,4 km/h (4 Bft)
18.11.2015 02:40 14,1 C 14,0 C 57 % 1017,2 hPa 0,0 mm 14,8 km/h (3 Bft) NW 315 5,7 C 23,3 km/h (4 Bft)
18.11.2015 02:45 13,8 C 13,7 C 58 % 1017,2 hPa 0,0 mm 12,9 km/h (3 Bft) W-SW 247 5,7 C 23,8 km/h (4 Bft)
18.11.2015 02:50 13,7 C 13,6 C 58 % 1016,4 hPa 0,0 mm 11,9 km/h (2 Bft) SW 225 5,6 C 10,4 km/h (2 Bft)
18.11.2015 02:55 13,6 C 13,4 C 59 % 1016,4 hPa 0,0 mm 10,9 km/h (2 Bft) W-SW 247 5,7 C 13,7 km/h (3 Bft)
18.11.2015 03:00 13,6 C 13,4 C 59 % 1016,4 hPa 0,0 mm 10,6 km/h (2 Bft) W-NW 292 5,7 C 12,9 km/h (3 Bft)
18.11.2015 03:05 13,7 C 13,5 C 60 % 1016,4 hPa 0,0 mm 13,5 km/h (3 Bft) S 180 6,1 C 44,0 km/h (6 Bft)
18.11.2015 03:10 13,6 C 13,4 C 60 % 1016,3 hPa 0,0 mm 14,5 km/h (3 Bft) NW 315 6,0 C 11,7 km/h (2 Bft)
18.11.2015 03:15 13,5 C 13,3 C 61 % 1016,3 hPa 0,0 mm 12,9 km/h (3 Bft) W-SW 247 6,1 C 24,9 km/h (4 Bft)
18.11.2015 03:20 13,6 C 13,4 C 61 % 1016,3 hPa 0,0 mm 13,7 km/h (3 Bft) W-SW 247 6,2 C 14,2 km/h (3 Bft)
18.11.2015 03:25 13,5 C 13,3 C 62 % 1016,3 hPa 0,0 mm 13,5 km/h (3 Bft) W-NW 292 6,4 C 11,4 km/h (2 Bft)
18.11.2015 03:30 13,6 C 13,3 C 62 % 1015,8 hPa 0,0 mm 14,0 km/h (3 Bft) SW 225 6,5 C 34,7 km/h (5 Bft)
18.11.2015 03:35 13,6 C 13,4 C 61 % 1015,8 hPa 0,0 mm 15,0 km/h (3 Bft) NW 315 6,2 C 29,5 km/h (5 Bft)
18.11.2015 03:40 13,9 C 13,5 C 61 % 1015,8 hPa 0,0 mm 16,6 km/h (3 Bft) W-NW 292 6,5 C 25,4 km/h (4 Bft)
18.11.2015 03:45 14,1 C 13,7 C 61 % 1015,8 hPa 0,0 mm 17,1 km/h (3 Bft) W-SW 247 6,7 C 25,9 km/h (4 Bft)
18.11.2015 03:50 14,1 C 13,8 C 61 % 1016,1 hPa 0,0 mm 18,1 km/h (3 Bft) W-SW 247 6,7 C 25,4 km/h (4 Bft)
18.11.2015 03:55 14,1 C 13,8 C 60 % 1016,1 hPa 0,0 mm 20,7 km/h (4 Bft) W 270 6,5 C 47,9 km/h (6 Bft)
18.11.2015 04:00 14,1 C 13,7 C 61 % 1016,1 hPa 0,0 mm 20,2 km/h (4 Bft) W 270 6,7 C 17,9 km/h (3 Bft)
18.11.2015 04:05 13,9 C 13,5 C 62 % 1016,1 hPa 0,0 mm 18,6 km/h (3 Bft) W 270 6,7 C 49,7 km/h (6 Bft)
18.11.2015 04:10 14,1 C 13,8 C 61 % 1016,0 hPa 0,0 mm 17,3 km/h (3 Bft) W-NW 292 6,7 C 18,4 km/h (3 Bft)
18.11.2015 04:15 14,3 C 13,9 C 61 % 1016,0 hPa 0,0 mm 21,5 km/h (4 Bft) O 90 6,9 C 54,4 km/h (7 Bft)
18.11.2015 04:20 14,0 C 13,7 C 61 % 1016,0 hPa 0,0 mm 19,7 km/h (3 Bft) W 270 6,6 C 17,3 km/h (3 Bft)
18.11.2015 04:25 14,3 C 13,8 C 60 % 1016,0 hPa 0,0 mm 19,9 km/h (4 Bft) W-NW 292 6,6 C 43,5 km/h (6 Bft)
18.11.2015 04:30 14,1 C 13,7 C 60 % 1015,9 hPa 0,0 mm 20,5 km/h (4 Bft) W-SW 247 6,5 C 33,1 km/h (5 Bft)
18.11.2015 04:34 14,1 C 12,4 C 60 % 1015,9 hPa 0,0 mm 18,9 km/h (3 Bft) NW 315 6,5 C 19,9 km/h (4 Bft)
18.11.2015 04:35 14,1 C 13,7 C 60 % 1015,9 hPa 0,0 mm 18,9 km/h (3 Bft) NW 315 6,5 C 19,9 km/h (4 Bft)
18.11.2015 04:40 14,0 C 13,6 C 60 % 1015,9 hPa 0,0 mm 18,4 km/h (3 Bft) S 180 6,4 C 21,2 km/h (4 Bft)
18.11.2015 04:45 14,2 C 13,8 C 59 % 1015,9 hPa 0,0 mm 18,1 km/h (3 Bft) W-NW 292 6,3 C 40,4 km/h (6 Bft)
18.11.2015 04:50 14,2 C 13,8 C 59 % 1015,8 hPa 0,0 mm 19,4 km/h (3 Bft) W 270 6,3 C 29,8 km/h (5 Bft)
18.11.2015 04:55 14,2 C 13,9 C 60 % 1015,8 hPa 0,0 mm 20,2 km/h (4 Bft) W 270 6,5 C 37,5 km/h (5 Bft)
18.11.2015 05:00 13,9 C 13,6 C 60 % 1015,8 hPa 0,0 mm 19,4 km/h (3 Bft) W-SW 247 6,3 C 15,5 km/h (3 Bft)
18.11.2015 05:05 13,9 C 13,6 C 61 % 1015,8 hPa 0,0 mm 19,4 km/h (3 Bft) W 270 6,5 C 35,7 km/h (5 Bft)
18.11.2015 05:10 13,9 C 13,6 C 60 % 1016,2 hPa 0,0 mm 19,9 km/h (4 Bft) NW 315 6,3 C 20,5 km/h (4 Bft)
18.11.2015 05:15 13,9 C 13,5 C 60 % 1016,2 hPa 0,0 mm 20,5 km/h (4 Bft) W-SW 247 6,3 C 53,9 km/h (7 Bft)
18.11.2015 05:20 13,9 C 13,5 C 60 % 1016,2 hPa 0,0 mm 19,7 km/h (3 Bft) W 270 6,3 C 34,2 km/h (5 Bft)
18.11.2015 05:25 13,8 C 13,4 C 60 % 1016,2 hPa 0,0 mm 17,9 km/h (3 Bft) W-SW 247 6,2 C 17,3 km/h (3 Bft)
18.11.2015 05:30 13,9 C 13,5 C 59 % 1016,7 hPa 0,0 mm 20,7 km/h (4 Bft) W-NW 292 6,0 C 19,2 km/h (3 Bft)
18.11.2015 05:35 13,7 C 13,3 C 59 % 1016,7 hPa 0,0 mm 21,2 km/h (4 Bft) W 270 5,8 C 16,8 km/h (3 Bft)
18.11.2015 05:40 13,8 C 13,4 C 59 % 1016,7 hPa 0,0 mm 20,7 km/h (4 Bft) W-SW 247 5,9 C 28,7 km/h (4 Bft)
18.11.2015 05:45 13,7 C 13,3 C 59 % 1016,7 hPa 0,0 mm 21,2 km/h (4 Bft) W 270 5,8 C 16,8 km/h (3 Bft)
18.11.2015 05:50 13,7 C 13,3 C 59 % 1016,6 hPa 0,0 mm 22,3 km/h (4 Bft) W-SW 247 5,8 C 26,9 km/h (4 Bft)
18.11.2015 05:55 13,6 C 13,2 C 59 % 1016,6 hPa 0,0 mm 19,9 km/h (4 Bft) NW 315 5,7 C 65,5 km/h (8 Bft)
18.11.2015 06:00 13,7 C 13,3 C 58 % 1016,6 hPa 0,0 mm 23,0 km/h (4 Bft) W 270 5,6 C 38,6 km/h (5 Bft)
18.11.2015 06:05 13,4 C 13,0 C 58 % 1016,6 hPa 0,0 mm 20,7 km/h (4 Bft) O 90 5,3 C 36,0 km/h (5 Bft)
18.11.2015 06:10 13,4 C 13,1 C 58 % 1016,7 hPa 0,0 mm 16,6 km/h (3 Bft) S 180 5,3 C 17,1 km/h (3 Bft)
18.11.2015 06:15 13,5 C 13,2 C 58 % 1016,7 hPa 0,0 mm 18,4 km/h (3 Bft) W-NW 292 5,4 C 14,0 km/h (3 Bft)
18.11.2015 06:20 13,5 C 13,2 C 58 % 1016,7 hPa 0,0 mm 19,4 km/h (3 Bft) W-NW 292 5,4 C 39,6 km/h (6 Bft)
18.11.2015 06:25 13,4 C 13,0 C 58 % 1016,7 hPa 0,0 mm 19,7 km/h (3 Bft) W 270 5,3 C 17,3 km/h (3 Bft)
18.11.2015 06:30 13,5 C 13,1 C 58 % 1016,9 hPa 0,0 mm 20,5 km/h (4 Bft) W-SW 247 5,4 C 27,4 km/h (4 Bft)
18.11.2015 06:35 13,6 C 13,2 C 57 % 1016,9 hPa 0,0 mm 20,7 km/h (4 Bft) W-NW 292 5,2 C 23,3 km/h (4 Bft)
18.11.2015 06:40 13,8 C 13,3 C 57 % 1016,9 hPa 0,0 mm 21,8 km/h (4 Bft) W-SW 247 5,4 C 34,4 km/h (5 Bft)
18.11.2015 06:45 13,5 C 13,2 C 56 % 1016,9 hPa 0,0 mm 17,9 km/h (3 Bft) W-NW 292 4,9 C 69,9 km/h (8 Bft)
18.11.2015 06:50 13,4 C 13,1 C 57 % 1017,3 hPa 0,0 mm 16,3 km/h (3 Bft) W-NW 292 5,1 C 17,9 km/h (3 Bft)
18.11.2015 06:55 13,3 C 13,0 C 56 % 1017,3 hPa 0,0 mm 15,8 km/h (3 Bft) SW 225 4,7 C 19,2 km/h (3 Bft)
18.11.2015 07:00 13,2 C 12,9 C 56 % 1017,3 hPa 0,0 mm 15,5 km/h (3 Bft) W 270 4,6 C 18,9 km/h (3 Bft)
18.11.2015 07:05 13,4 C 12,9 C 56 % 1017,3 hPa 0,0 mm 15,8 km/h (3 Bft) W-SW 247 4,8 C 21,0 km/h (4 Bft)
18.11.2015 07:10 13,3 C 12,9 C 56 % 1017,6 hPa 0,0 mm 17,6 km/h (3 Bft) W 270 4,7 C 50,0 km/h (6 Bft)
18.11.2015 07:15 13,0 C 12,7 C 56 % 1017,6 hPa 0,0 mm 14,5 km/h (3 Bft) S 180 4,4 C 12,2 km/h (2 Bft)
18.11.2015 07:20 12,8 C 12,6 C 57 % 1017,6 hPa 0,0 mm 11,4 km/h (2 Bft) W-NW 292 4,5 C 19,7 km/h (3 Bft)
18.11.2015 07:25 13,0 C 12,6 C 57 % 1017,6 hPa 0,0 mm 11,9 km/h (2 Bft) W-SW 247 4,7 C 18,9 km/h (3 Bft)
18.11.2015 07:30 13,0 C 12,7 C 57 % 1017,9 hPa 0,0 mm 13,7 km/h (3 Bft) W-SW 247 4,7 C 17,3 km/h (3 Bft)
18.11.2015 07:35 12,9 C 12,6 C 57 % 1017,9 hPa 0,0 mm 13,5 km/h (3 Bft) W 270 4,6 C 14,8 km/h (3 Bft)
18.11.2015 07:40 12,8 C 12,5 C 57 % 1017,9 hPa 0,0 mm 11,9 km/h (2 Bft) N 360 4,5 C 9,6 km/h (2 Bft)
18.11.2015 07:45 12,8 C 12,5 C 57 % 1017,9 hPa 0,0 mm 11,4 km/h (2 Bft) W-SW 247 4,5 C 18,4 km/h (3 Bft)
18.11.2015 07:50 13,0 C 12,7 C 56 % 1018,3 hPa 0,0 mm 12,4 km/h (3 Bft) W 270 4,4 C 16,6 km/h (3 Bft)
18.11.2015 07:55 12,7 C 12,4 C 57 % 1018,3 hPa 0,0 mm 11,7 km/h (2 Bft) W-SW 247 4,4 C 12,4 km/h (3 Bft)
18.11.2015 08:00 12,7 C 12,5 C 57 % 1018,3 hPa 0,0 mm 10,1 km/h (2 Bft) W-SW 247 4,4 C 17,1 km/h (3 Bft)
18.11.2015 08:05 12,6 C 12,4 C 57 % 1018,3 hPa 0,0 mm 9,3 km/h (2 Bft) W-SW 247 4,3 C 8,0 km/h (2 Bft)
18.11.2015 08:10 12,4 C 12,3 C 57 % 1018,5 hPa 0,0 mm 9,3 km/h (2 Bft) W-SW 247 4,1 C 12,4 km/h (3 Bft)
18.11.2015 08:15 12,2 C 12,2 C 58 % 1018,5 hPa 0,0 mm 8,3 km/h (2 Bft) W 270 4,2 C 10,1 km/h (2 Bft)
18.11.2015 08:20 12,2 C 12,1 C 58 % 1018,5 hPa 0,0 mm 8,5 km/h (2 Bft) W 270 4,2 C 8,3 km/h (2 Bft)
18.11.2015 08:25 11,9 C 11,9 C 59 % 1018,5 hPa 0,0 mm 7,5 km/h (2 Bft) S-SO 157 4,1 C 9,6 km/h (2 Bft)
18.11.2015 08:30 12,0 C 11,9 C 59 % 1019,1 hPa 0,0 mm 8,5 km/h (2 Bft) W-SW 247 4,2 C 20,7 km/h (4 Bft)
18.11.2015 08:35 12,4 C 12,1 C 59 % 1019,1 hPa 0,0 mm 10,6 km/h (2 Bft) W 270 4,6 C 15,8 km/h (3 Bft)
18.11.2015 08:40 12,3 C 12,1 C 59 % 1019,1 hPa 0,0 mm 10,4 km/h (2 Bft) W-SW 247 4,5 C 19,9 km/h (4 Bft)
18.11.2015 08:45 12,4 C 12,2 C 59 % 1019,1 hPa 0,0 mm 10,6 km/h (2 Bft) SW 225 4,6 C 10,4 km/h (2 Bft)
18.11.2015 08:50 12,5 C 12,3 C 59 % 1019,2 hPa 0,0 mm 11,1 km/h (2 Bft) W 270 4,7 C 10,4 km/h (2 Bft)
18.11.2015 08:55 12,5 C 12,3 C 59 % 1019,2 hPa 0,0 mm 10,4 km/h (2 Bft) SW 225 4,7 C 5,7 km/h (1 Bft)
18.11.2015 09:00 12,5 C 12,3 C 59 % 1019,2 hPa 0,0 mm 10,9 km/h (2 Bft) W-SW 247 4,7 C 20,5 km/h (4 Bft)
18.11.2015 09:05 12,5 C 12,3 C 60 % 1019,2 hPa 0,0 mm 10,6 km/h (2 Bft) W-SW 247 5,0 C 24,3 km/h (4 Bft)
18.11.2015 09:10 12,5 C 12,3 C 60 % 1019,3 hPa 0,0 mm 10,6 km/h (2 Bft) W-SW 247 5,0 C 17,3 km/h (3 Bft)
18.11.2015 09:15 12,7 C 12,5 C 61 % 1019,3 hPa 0,0 mm 14,5 km/h (3 Bft) W-SW 247 5,4 C 15,0 km/h (3 Bft)
18.11.2015 09:20 12,6 C 12,4 C 63 % 1019,3 hPa 0,0 mm 16,1 km/h (3 Bft) W-SW 247 5,7 C 26,7 km/h (4 Bft)
18.11.2015 09:25 12,6 C 12,3 C 63 % 1019,3 hPa 0,0 mm 16,8 km/h (3 Bft) S 180 5,7 C 9,3 km/h (2 Bft)
18.11.2015 09:30 12,6 C 12,4 C 64 % 1019,5 hPa 0,0 mm 16,3 km/h (3 Bft) W 270 6,0 C 22,0 km/h (4 Bft)
18.11.2015 09:35 12,5 C 12,3 C 65 % 1019,5 hPa 0,0 mm 15,0 km/h (3 Bft) W 270 6,1 C 30,3 km/h (5 Bft)
18.11.2015 09:40 12,5 C 12,3 C 66 % 1019,5 hPa 0,0 mm 14,8 km/h (3 Bft) W-SW 247 6,3 C 15,0 km/h (3 Bft)
18.11.2015 09:45 12,5 C 12,3 C 66 % 1019,5 hPa 0,0 mm 13,5 km/h (3 Bft) W-SW 247 6,3 C 14,8 km/h (3 Bft)
18.11.2015 09:50 12,6 C 12,4 C 66 % 1019,6 hPa 0,0 mm 14,8 km/h (3 Bft) W-NW 292 6,4 C 14,2 km/h (3 Bft)
18.11.2015 09:55 12,6 C 12,4 C 67 % 1019,6 hPa 0,0 mm 17,3 km/h (3 Bft) W 270 6,6 C 26,2 km/h (4 Bft)
18.11.2015 10:00 12,6 C 12,4 C 68 % 1019,6 hPa 0,0 mm 17,1 km/h (3 Bft) W 270 6,9 C 15,5 km/h (3 Bft)
18.11.2015 10:05 12,5 C 12,3 C 68 % 1019,6 hPa 0,0 mm 19,4 km/h (3 Bft) W-SW 247 6,8 C 30,6 km/h (5 Bft)
18.11.2015 10:10 12,5 C 12,2 C 68 % 1020,1 hPa 0,0 mm 18,9 km/h (3 Bft) NW 315 6,8 C 32,6 km/h (5 Bft)
18.11.2015 10:15 12,5 C 12,2 C 68 % 1020,1 hPa 0,0 mm 19,4 km/h (3 Bft) S 180 6,8 C 20,7 km/h (4 Bft)
18.11.2015 10:20 12,5 C 12,1 C 68 % 1020,1 hPa 0,0 mm 20,5 km/h (4 Bft) W-SW 247 6,8 C 35,2 km/h (5 Bft)
18.11.2015 10:25 12,5 C 12,1 C 67 % 1020,1 hPa 0,0 mm 22,0 km/h (4 Bft) W-SW 247 6,5 C 22,0 km/h (4 Bft)
18.11.2015 10:30 12,4 C 11,9 C 67 % 1020,4 hPa 0,0 mm 19,9 km/h (4 Bft) O-SO 112 6,4 C 33,7 km/h (5 Bft)
18.11.2015 10:35 12,5 C 11,0 C 67 % 1020,4 hPa 0,0 mm 17,9 km/h (3 Bft) W-NW 292 6,5 C 42,2 km/h (6 Bft)
18.11.2015 10:40 12,5 C 12,2 C 66 % 1020,4 hPa 0,0 mm 20,2 km/h (4 Bft) W-SW 247 6,3 C 32,6 km/h (5 Bft)
18.11.2015 10:45 12,5 C 12,0 C 66 % 1020,4 hPa 0,0 mm 21,2 km/h (4 Bft) W 270 6,3 C 22,0 km/h (4 Bft)
18.11.2015 10:50 12,5 C 12,2 C 66 % 1020,3 hPa 0,0 mm 21,0 km/h (4 Bft) W-SW 247 6,3 C 17,1 km/h (3 Bft)
18.11.2015 10:55 12,5 C 12,1 C 66 % 1020,3 hPa 0,0 mm 20,7 km/h (4 Bft) W-SW 247 6,3 C 21,2 km/h (4 Bft)
18.11.2015 11:00 12,5 C 12,2 C 66 % 1020,3 hPa 0,0 mm 20,2 km/h (4 Bft) W-SW 247 6,3 C 15,3 km/h (3 Bft)
18.11.2015 11:05 12,6 C 12,2 C 65 % 1020,3 hPa 0,0 mm 22,0 km/h (4 Bft) W-SW 247 6,2 C 24,9 km/h (4 Bft)
18.11.2015 11:10 12,7 C 12,4 C 65 % 1020,6 hPa 0,0 mm 22,8 km/h (4 Bft) W-NW 292 6,3 C 37,8 km/h (5 Bft)
18.11.2015 11:15 12,7 C 12,4 C 65 % 1020,6 hPa 0,0 mm 17,3 km/h (3 Bft) N-NO 22 6,3 C 0,0 km/h (0 Bft)
18.11.2015 11:20 12,7 C 12,5 C 65 % 1020,6 hPa 0,0 mm 12,4 km/h (3 Bft) S-SO 157 6,3 C 0,0 km/h (0 Bft)
18.11.2015 11:25 12,7 C 12,4 C 64 % 1020,6 hPa 0,0 mm 12,4 km/h (3 Bft) S-SO 157 6,1 C 0,0 km/h (0 Bft)
18.11.2015 11:30 12,7 C 12,4 C 64 % 1020,6 hPa 0,0 mm 12,4 km/h (3 Bft) S-SO 157 6,1 C 0,0 km/h (0 Bft)
18.11.2015 11:35 12,8 C 12,5 C 64 % 1020,6 hPa 0,0 mm 0,0 km/h (0 Bft) S-SO 157 6,2 C 0,0 km/h (0 Bft)
18.11.2015 11:40 12,8 C 12,5 C 64 % 1020,6 hPa 0,0 mm 0,0 km/h (0 Bft) S-SO 157 6,2 C 0,0 km/h (0 Bft)
18.11.2015 11:45 12,8 C 12,5 C 64 % 1020,6 hPa 0,0 mm 0,0 km/h (0 Bft) S-SO 157 6,2 C 0,0 km/h (0 Bft)
18.11.2015 11:50 12,7 C 12,4 C 64 % 1021,0 hPa 0,0 mm 0,0 km/h (0 Bft) S-SO 157 6,1 C 0,0 km/h (0 Bft)
18.11.2015 11:55 12,6 C 12,4 C 64 % 1021,0 hPa 0,0 mm 0,0 km/h (0 Bft) N-NW 337 6,0 C 0,0 km/h (0 Bft)
18.11.2015 12:00 12,7 C 12,4 C 64 % 1021,0 hPa 0,0 mm 14,2 km/h (3 Bft) W-SW 247 6,1 C 30,6 km/h (5 Bft)
18.11.2015 12:05 12,7 C 12,4 C 64 % 1021,0 hPa 0,0 mm 14,5 km/h (3 Bft) W 270 6,1 C 29,3 km/h (5 Bft)
18.11.2015 12:10 12,7 C 12,5 C 63 % 1021,0 hPa 0,0 mm 15,8 km/h (3 Bft) NW 315 5,8 C 22,5 km/h (4 Bft)
18.11.2015 12:15 12,6 C 12,3 C 63 % 1021,0 hPa 0,0 mm 15,8 km/h (3 Bft) W-SW 247 5,7 C 23,8 km/h (4 Bft)
18.11.2015 12:20 12,7 C 12,4 C 63 % 1021,0 hPa 0,0 mm 15,0 km/h (3 Bft) W-SW 247 5,8 C 14,5 km/h (3 Bft)
18.11.2015 12:25 12,6 C 12,4 C 62 % 1021,0 hPa 0,0 mm 16,6 km/h (3 Bft) O-SO 112 5,5 C 24,3 km/h (4 Bft)
18.11.2015 12:30 12,6 C 12,3 C 62 % 1020,8 hPa 0,0 mm 14,8 km/h (3 Bft) S-SW 202 5,5 C 9,1 km/h (2 Bft)
18.11.2015 12:35 12,6 C 12,4 C 62 % 1020,8 hPa 0,0 mm 11,9 km/h (2 Bft) W-SW 247 5,5 C 9,3 km/h (2 Bft)
18.11.2015 12:40 12,6 C 12,4 C 61 % 1020,8 hPa 0,0 mm 12,4 km/h (3 Bft) S-SW 202 5,3 C 16,3 km/h (3 Bft)
18.11.2015 12:45 12,7 C 12,5 C 61 % 1020,8 hPa 0,0 mm 14,0 km/h (3 Bft) SW 225 5,4 C 28,0 km/h (4 Bft)
18.11.2015 12:50 12,7 C 12,5 C 60 % 1020,6 hPa 0,0 mm 13,7 km/h (3 Bft) W-SW 247 5,1 C 19,4 km/h (3 Bft)
18.11.2015 12:55 12,8 C 12,6 C 60 % 1020,6 hPa 0,0 mm 11,9 km/h (2 Bft) W 270 5,2 C 14,0 km/h (3 Bft)
18.11.2015 13:00 12,9 C 12,7 C 59 % 1020,6 hPa 0,0 mm 11,9 km/h (2 Bft) W-NW 292 5,1 C 16,3 km/h (3 Bft)
18.11.2015 13:05 12,8 C 12,7 C 59 % 1020,6 hPa 0,0 mm 11,7 km/h (2 Bft) W-NW 292 5,0 C 12,7 km/h (3 Bft)
18.11.2015 13:10 12,9 C 12,7 C 59 % 1020,6 hPa 0,0 mm 12,2 km/h (2 Bft) W-SW 247 5,1 C 16,8 km/h (3 Bft)
18.11.2015 13:15 12,9 C 12,8 C 59 % 1020,6 hPa 0,0 mm 11,9 km/h (2 Bft) W-NW 292 5,1 C 22,0 km/h (4 Bft)
18.11.2015 13:20 13,1 C 12,9 C 59 % 1020,6 hPa 0,0 mm 12,9 km/h (3 Bft) W-SW 247 5,3 C 8,8 km/h (2 Bft)
18.11.2015 13:25 13,3 C 13,2 C 59 % 1020,6 hPa 0,0 mm 14,2 km/h (3 Bft) W-SW 247 5,5 C 16,6 km/h (3 Bft)
18.11.2015 13:30 14,0 C 15,0 C 58 % 1021,1 hPa 0,0 mm 14,0 km/h (3 Bft) W-NW 292 5,9 C 19,9 km/h (4 Bft)
18.11.2015 13:35 14,3 C 16,8 C 58 % 1021,1 hPa 0,0 mm 14,8 km/h (3 Bft) W-SW 247 6,2 C 25,6 km/h (4 Bft)
18.11.2015 13:40 14,4 C 17,2 C 57 % 1021,1 hPa 0,0 mm 15,0 km/h (3 Bft) W-NW 292 6,0 C 15,3 km/h (3 Bft)
18.11.2015 13:45 14,5 C 17,3 C 57 % 1021,1 hPa 0,0 mm 15,8 km/h (3 Bft) W 270 6,1 C 11,1 km/h (2 Bft)
18.11.2015 13:50 14,7 C 17,6 C 57 % 1022,6 hPa 0,0 mm 12,9 km/h (3 Bft) W 270 6,3 C 18,1 km/h (3 Bft)
18.11.2015 13:55 14,6 C 17,8 C 57 % 1022,6 hPa 0,0 mm 11,4 km/h (2 Bft) NW 315 6,2 C 10,6 km/h (2 Bft)
18.11.2015 14:00 14,5 C 18,0 C 57 % 1022,6 hPa 0,0 mm 11,4 km/h (2 Bft) W 270 6,1 C 14,5 km/h (3 Bft)
18.11.2015 14:05 14,4 C 17,9 C 56 % 1022,6 hPa 0,0 mm 12,9 km/h (3 Bft) W 270 5,7 C 30,0 km/h (5 Bft)
18.11.2015 14:10 14,1 C 17,9 C 56 % 1022,1 hPa 0,0 mm 13,2 km/h (3 Bft) W 270 5,5 C 19,4 km/h (3 Bft)
18.11.2015 14:15 14,1 C 17,7 C 56 % 1022,1 hPa 0,0 mm 13,2 km/h (3 Bft) W-NW 292 5,5 C 17,3 km/h (3 Bft)
18.11.2015 14:20 14,2 C 16,7 C 56 % 1022,1 hPa 0,0 mm 13,2 km/h (3 Bft) W-NW 292 5,6 C 19,9 km/h (4 Bft)
18.11.2015 14:25 14,3 C 16,7 C 56 % 1022,1 hPa 0,0 mm 13,5 km/h (3 Bft) W-SW 247 5,6 C 9,8 km/h (2 Bft)
18.11.2015 14:30 14,6 C 17,4 C 55 % 1021,6 hPa 0,0 mm 11,9 km/h (2 Bft) NW 315 5,7 C 19,9 km/h (4 Bft)
18.11.2015 14:35 14,6 C 17,6 C 55 % 1021,6 hPa 0,0 mm 11,1 km/h (2 Bft) W 270 5,7 C 12,9 km/h (3 Bft)
18.11.2015 14:40 14,6 C 17,7 C 55 % 1021,6 hPa 0,0 mm 11,9 km/h (2 Bft) W 270 5,7 C 10,6 km/h (2 Bft)
18.11.2015 14:45 14,7 C 17,7 C 54 % 1021,6 hPa 0,0 mm 11,7 km/h (2 Bft) W 270 5,5 C 14,8 km/h (3 Bft)
18.11.2015 14:50 14,6 C 17,6 C 54 % 1021,4 hPa 0,0 mm 11,1 km/h (2 Bft) W-NW 292 5,4 C 21,5 km/h (4 Bft)
18.11.2015 14:55 14,4 C 17,7 C 54 % 1021,4 hPa 0,0 mm 9,3 km/h (2 Bft) W 270 5,2 C 5,7 km/h (1 Bft)
18.11.2015 15:00 13,9 C 17,5 C 54 % 1021,4 hPa 0,0 mm 11,1 km/h (2 Bft) W-SW 247 4,7 C 11,4 km/h (2 Bft)
18.11.2015 15:05 13,6 C 17,3 C 55 % 1021,4 hPa 0,0 mm 10,4 km/h (2 Bft) W-SW 247 4,7 C 9,8 km/h (2 Bft)
18.11.2015 15:10 13,3 C 17,2 C 55 % 1021,1 hPa 0,0 mm 9,1 km/h (2 Bft) W-SW 247 4,5 C 6,7 km/h (2 Bft)
18.11.2015 15:15 13,1 C 16,7 C 55 % 1021,1 hPa 0,0 mm 8,0 km/h (2 Bft) W 270 4,3 C 5,2 km/h (1 Bft)
18.11.2015 15:20 13,0 C 14,8 C 55 % 1021,1 hPa 0,0 mm 7,5 km/h (2 Bft) NO 45 4,2 C 5,4 km/h (1 Bft)
18.11.2015 15:25 12,9 C 14,0 C 55 % 1021,1 hPa 0,0 mm 7,5 km/h (2 Bft) W-SW 247 4,1 C 6,2 km/h (2 Bft)
18.11.2015 15:30 12,6 C 13,1 C 56 % 1020,5 hPa 0,0 mm 6,5 km/h (2 Bft) W-SW 247 4,1 C 12,2 km/h (2 Bft)
18.11.2015 15:35 12,5 C 12,8 C 56 % 1020,5 hPa 0,0 mm 6,0 km/h (2 Bft) W-NW 292 4,0 C 6,5 km/h (2 Bft)
18.11.2015 15:40 12,4 C 12,4 C 56 % 1020,5 hPa 0,0 mm 6,2 km/h (2 Bft) W-SW 247 3,9 C 8,3 km/h (2 Bft)
18.11.2015 15:45 12,3 C 12,3 C 55 % 1020,5 hPa 0,0 mm 5,4 km/h (1 Bft) W-SW 247 3,5 C 6,0 km/h (2 Bft)
18.11.2015 15:50 12,2 C 12,1 C 55 % 1020,4 hPa 0,0 mm 4,7 km/h (1 Bft) SW 225 3,4 C 7,3 km/h (2 Bft)
18.11.2015 15:55 12,1 C 12,1 C 56 % 1020,4 hPa 0,0 mm 4,4 km/h (1 Bft) SW 225 3,6 C 4,7 km/h (1 Bft)
18.11.2015 16:00 11,9 C 11,8 C 55 % 1020,4 hPa 0,0 mm 4,1 km/h (1 Bft) S-SW 202 3,2 C 7,0 km/h (2 Bft)
18.11.2015 16:05 11,8 C 11,7 C 55 % 1020,4 hPa 0,0 mm 3,6 km/h (1 Bft) S-SW 202 3,1 C 2,8 km/h (1 Bft)
18.11.2015 16:10 11,9 C 11,7 C 54 % 1020,1 hPa 0,0 mm 4,4 km/h (1 Bft) W-SW 247 2,9 C 3,4 km/h (1 Bft)
18.11.2015 16:15 11,9 C 11,7 C 53 % 1020,1 hPa 0,0 mm 4,4 km/h (1 Bft) S 180 2,6 C 5,7 km/h (1 Bft)
18.11.2015 16:20 11,7 C 11,6 C 52 % 1020,1 hPa 0,0 mm 3,9 km/h (1 Bft) S 180 2,2 C 2,8 km/h (1 Bft)
18.11.2015 16:25 11,4 C 11,3 C 52 % 1020,1 hPa 0,0 mm 3,4 km/h (1 Bft) W-SW 247 1,9 C 2,8 km/h (1 Bft)
18.11.2015 16:30 11,1 C 10,9 C 53 % 1020,0 hPa 0,0 mm 1,8 km/h (1 Bft) SW 225 1,9 C 4,1 km/h (1 Bft)
18.11.2015 16:36 11,0 C 10,8 C 52 % 1020,0 hPa 0,0 mm 2,1 km/h (1 Bft) S-SW 202 1,5 C 2,6 km/h (1 Bft)
18.11.2015 16:40 10,3 C 10,2 C 53 % 1020,0 hPa 0,0 mm 1,8 km/h (1 Bft) S 180 1,1 C 0,0 km/h (0 Bft)
18.11.2015 16:45 10,7 C 10,4 C 53 % 1020,0 hPa 0,0 mm 1,8 km/h (1 Bft) SW 225 1,5 C 4,4 km/h (1 Bft)
18.11.2015 16:50 10,6 C 10,3 C 53 % 1019,9 hPa 0,0 mm 3,1 km/h (1 Bft) SW 225 1,4 C 7,0 km/h (2 Bft)
18.11.2015 16:55 10,8 C 10,5 C 52 % 1019,9 hPa 0,0 mm 4,1 km/h (1 Bft) SW 225 1,3 C 7,0 km/h (2 Bft)
18.11.2015 17:00 10,6 C 10,4 C 51 % 1019,9 hPa 0,0 mm 4,7 km/h (1 Bft) SW 225 0,9 C 3,1 km/h (1 Bft)
18.11.2015 17:05 10,8 C 10,5 C 51 % 1019,9 hPa 0,0 mm 4,9 km/h (1 Bft) W-SW 247 1,1 C 4,4 km/h (1 Bft)
18.11.2015 17:10 11,1 C 10,8 C 49 % 1019,9 hPa 0,0 mm 6,7 km/h (2 Bft) S 180 0,8 C 12,2 km/h (2 Bft)
18.11.2015 17:15 10,4 C 10,3 C 50 % 1019,9 hPa 0,0 mm 5,4 km/h (1 Bft) SO 135 0,4 C 0,0 km/h (0 Bft)
18.11.2015 17:20 9,6 C 9,5 C 53 % 1019,9 hPa 0,0 mm 2,6 km/h (1 Bft) SW 225 0,5 C 0,0 km/h (0 Bft)
18.11.2015 17:25 9,3 C 9,2 C 54 % 1019,9 hPa 0,0 mm 2,1 km/h (1 Bft) S-SW 202 0,5 C 5,2 km/h (1 Bft)
18.11.2015 17:30 9,1 C 9,0 C 55 % 1019,8 hPa 0,0 mm 3,9 km/h (1 Bft) S-SO 157 0,5 C 0,0 km/h (0 Bft)
18.11.2015 17:35 8,7 C 8,8 C 55 % 1019,8 hPa 0,0 mm 4,4 km/h (1 Bft) SW 225 0,2 C 3,9 km/h (1 Bft)
18.11.2015 17:40 8,4 C 8,6 C 56 % 1019,8 hPa 0,0 mm 4,1 km/h (1 Bft) SW 225 0,1 C 7,0 km/h (2 Bft)
18.11.2015 17:45 8,1 C 8,4 C 57 % 1019,8 hPa 0,0 mm 3,9 km/h (1 Bft) S 180 0,1 C 0,0 km/h (0 Bft)
18.11.2015 17:50 8,4 C 8,6 C 57 % 1020,1 hPa 0,0 mm 3,1 km/h (1 Bft) SW 225 0,4 C 2,8 km/h (1 Bft)
18.11.2015 17:55 8,8 C 8,8 C 56 % 1020,1 hPa 0,0 mm 3,6 km/h (1 Bft) S-SW 202 0,5 C 7,3 km/h (2 Bft)
18.11.2015 18:00 8,1 C 8,6 C 55 % 1020,1 hPa 0,0 mm 4,9 km/h (1 Bft) S-SW 202 -0,4 C 10,4 km/h (2 Bft)
18.11.2015 18:05 9,2 C 9,1 C 54 % 1020,1 hPa 0,0 mm 6,0 km/h (2 Bft) S 180 0,4 C 9,1 km/h (2 Bft)
18.11.2015 18:10 9,6 C 9,3 C 53 % 1020,2 hPa 0,0 mm 7,5 km/h (2 Bft) SW 225 0,5 C 6,2 km/h (2 Bft)
18.11.2015 18:15 9,7 C 9,4 C 53 % 1020,2 hPa 0,0 mm 7,5 km/h (2 Bft) SW 225 0,6 C 6,2 km/h (2 Bft)
18.11.2015 18:20 9,4 C 9,2 C 53 % 1020,2 hPa 0,0 mm 6,5 km/h (2 Bft) SW 225 0,3 C 6,7 km/h (2 Bft)
18.11.2015 18:25 9,4 C 9,2 C 53 % 1020,2 hPa 0,0 mm 6,2 km/h (2 Bft) SW 225 0,3 C 9,3 km/h (2 Bft)
18.11.2015 18:30 9,5 C 9,2 C 53 % 1020,2 hPa 0,0 mm 7,0 km/h (2 Bft) S 180 0,4 C 7,8 km/h (2 Bft)
18.11.2015 18:35 9,5 C 9,2 C 53 % 1020,2 hPa 0,0 mm 6,7 km/h (2 Bft) SW 225 0,4 C 7,8 km/h (2 Bft)
18.11.2015 18:40 9,4 C 9,2 C 53 % 1020,2 hPa 0,0 mm 6,7 km/h (2 Bft) S 180 0,3 C 9,1 km/h (2 Bft)
18.11.2015 18:45 9,5 C 9,2 C 54 % 1020,2 hPa 0,0 mm 7,0 km/h (2 Bft) SW 225 0,7 C 6,7 km/h (2 Bft)
18.11.2015 18:50 9,5 C 9,2 C 54 % 1020,2 hPa 0,0 mm 7,0 km/h (2 Bft) S 180 0,7 C 6,2 km/h (2 Bft)
18.11.2015 18:55 9,6 C 9,2 C 54 % 1020,2 hPa 0,0 mm 7,8 km/h (2 Bft) SW 225 0,8 C 14,8 km/h (3 Bft)
18.11.2015 19:00 9,6 C 9,2 C 54 % 1020,2 hPa 0,0 mm 8,8 km/h (2 Bft) W-SW 247 0,8 C 11,7 km/h (2 Bft)
18.11.2015 19:05 9,3 C 8,9 C 54 % 1020,2 hPa 0,0 mm 9,3 km/h (2 Bft) S 180 0,5 C 12,4 km/h (3 Bft)
18.11.2015 19:10 8,8 C 8,6 C 54 % 1020,2 hPa 0,0 mm 8,0 km/h (2 Bft) S 180 0,0 C 8,3 km/h (2 Bft)
18.11.2015 19:15 8,8 C 8,5 C 54 % 1020,2 hPa 0,0 mm 8,0 km/h (2 Bft) SW 225 0,0 C 10,9 km/h (2 Bft)
18.11.2015 19:20 8,3 C 8,1 C 55 % 1020,2 hPa 0,0 mm 7,0 km/h (2 Bft) S 180 -0,2 C 15,0 km/h (3 Bft)
18.11.2015 19:25 8,3 C 8,1 C 56 % 1020,2 hPa 0,0 mm 7,0 km/h (2 Bft) SW 225 0,0 C 8,5 km/h (2 Bft)
18.11.2015 19:30 7,8 C 7,8 C 56 % 1020,2 hPa 0,0 mm 6,0 km/h (2 Bft) S 180 -0,4 C 10,4 km/h (2 Bft)
18.11.2015 19:35 7,9 C 7,9 C 57 % 1020,2 hPa 0,0 mm 4,9 km/h (1 Bft) S-SO 157 -0,1 C 0,0 km/h (0 Bft)
18.11.2015 19:40 6,9 C 7,2 C 57 % 1020,2 hPa 0,0 mm 3,6 km/h (1 Bft) S-SO 157 -1,0 C 5,4 km/h (1 Bft)
18.11.2015 19:45 7,3 C 7,2 C 58 % 1020,2 hPa 0,0 mm 4,1 km/h (1 Bft) W-SW 247 -0,4 C 7,8 km/h (2 Bft)
18.11.2015 19:50 7,7 C 7,6 C 57 % 1019,9 hPa 0,0 mm 6,0 km/h (2 Bft) SW 225 -0,3 C 5,4 km/h (1 Bft)
18.11.2015 19:55 7,4 C 7,4 C 57 % 1019,9 hPa 0,0 mm 5,4 km/h (1 Bft) SW 225 -0,5 C 7,8 km/h (2 Bft)
18.11.2015 20:00 5,2 C 6,6 C 58 % 1019,9 hPa 0,0 mm 2,3 km/h (1 Bft) N-NW 337 -2,4 C 0,0 km/h (0 Bft)
18.11.2015 20:05 4,8 C 5,5 C 59 % 1019,9 hPa 0,0 mm 1,3 km/h (1 Bft) O-NO 67 -2,5 C 6,2 km/h (2 Bft)
18.11.2015 20:10 6,5 C 6,2 C 59 % 1019,9 hPa 0,0 mm 2,3 km/h (1 Bft) S-SO 157 -0,9 C 0,0 km/h (0 Bft)
18.11.2015 20:15 6,3 C 6,1 C 58 % 1019,9 hPa 0,0 mm 3,4 km/h (1 Bft) S-SO 157 -1,3 C 4,7 km/h (1 Bft)
18.11.2015 20:20 6,9 C 6,7 C 58 % 1019,9 hPa 0,0 mm 3,9 km/h (1 Bft) W-SW 247 -0,8 C 4,9 km/h (1 Bft)
18.11.2015 20:25 7,3 C 7,1 C 57 % 1019,9 hPa 0,0 mm 5,4 km/h (1 Bft) SW 225 -0,6 C 18,9 km/h (3 Bft)
18.11.2015 20:30 7,4 C 7,2 C 56 % 1019,8 hPa 0,0 mm 4,1 km/h (1 Bft) O-SO 112 -0,8 C 0,0 km/h (0 Bft)
18.11.2015 20:35 6,2 C 6,6 C 56 % 1019,8 hPa 0,0 mm 2,8 km/h (1 Bft) W-SW 247 -1,9 C 11,7 km/h (2 Bft)
18.11.2015 20:40 6,8 C 6,9 C 57 % 1019,8 hPa 0,0 mm 3,6 km/h (1 Bft) S 180 -1,1 C 3,9 km/h (1 Bft)
18.11.2015 20:45 7,5 C 7,3 C 57 % 1019,8 hPa 0,0 mm 6,7 km/h (2 Bft) S-SW 202 -0,5 C 12,2 km/h (2 Bft)
18.11.2015 20:50 8,9 C 8,3 C 56 % 1019,9 hPa 0,0 mm 10,9 km/h (2 Bft) S-SW 202 0,6 C 12,2 km/h (2 Bft)
18.11.2015 20:55 8,9 C 8,4 C 55 % 1019,9 hPa 0,0 mm 13,2 km/h (3 Bft) S 180 0,4 C 13,7 km/h (3 Bft)
18.11.2015 21:00 8,9 C 8,4 C 55 % 1019,9 hPa 0,0 mm 11,7 km/h (2 Bft) W-SW 247 0,4 C 9,8 km/h (2 Bft)
18.11.2015 21:05 8,8 C 8,3 C 55 % 1019,9 hPa 0,0 mm 11,9 km/h (2 Bft) S-SW 202 0,3 C 20,2 km/h (4 Bft)
18.11.2015 21:10 8,7 C 8,2 C 55 % 1020,1 hPa 0,0 mm 12,2 km/h (2 Bft) SW 225 0,2 C 18,1 km/h (3 Bft)
18.11.2015 21:15 8,1 C 7,7 C 54 % 1020,1 hPa 0,0 mm 11,7 km/h (2 Bft) S 180 -0,6 C 8,0 km/h (2 Bft)
18.11.2015 21:20 8,0 C 7,6 C 54 % 1020,1 hPa 0,0 mm 10,6 km/h (2 Bft) SW 225 -0,7 C 13,5 km/h (3 Bft)
18.11.2015 21:25 8,1 C 7,6 C 54 % 1020,1 hPa 0,0 mm 10,9 km/h (2 Bft) SW 225 -0,6 C 16,1 km/h (3 Bft)
18.11.2015 21:30 8,2 C 7,7 C 53 % 1019,9 hPa 0,0 mm 10,9 km/h (2 Bft) S 180 -0,8 C 13,5 km/h (3 Bft)
18.11.2015 21:35 7,8 C 7,5 C 53 % 1019,9 hPa 0,0 mm 8,8 km/h (2 Bft) SO 135 -1,2 C 0,0 km/h (0 Bft)
18.11.2015 21:40 6,9 C 6,9 C 53 % 1019,9 hPa 0,0 mm 3,1 km/h (1 Bft) S-SW 202 -2,0 C 3,1 km/h (1 Bft)
18.11.2015 21:45 6,9 C 6,7 C 53 % 1019,9 hPa 0,0 mm 2,3 km/h (1 Bft) S-SW 202 -2,0 C 15,5 km/h (3 Bft)
18.11.2015 21:50 7,1 C 6,9 C 52 % 1019,7 hPa 0,0 mm 3,9 km/h (1 Bft) S 180 -2,1 C 9,8 km/h (2 Bft)
18.11.2015 21:55 7,0 C 6,8 C 52 % 1019,7 hPa 0,0 mm 3,9 km/h (1 Bft) SO 135 -2,2 C 6,0 km/h (2 Bft)
18.11.2015 22:00 6,9 C 6,8 C 52 % 1019,7 hPa 0,0 mm 3,6 km/h (1 Bft) SO 135 -2,3 C 7,3 km/h (2 Bft)
18.11.2015 22:05 6,8 C 6,8 C 51 % 1019,7 hPa 0,0 mm 3,9 km/h (1 Bft) S 180 -2,6 C 4,4 km/h (1 Bft)
18.11.2015 22:10 5,1 C 6,1 C 54 % 1020,1 hPa 0,0 mm 2,8 km/h (1 Bft) S 180 -3,4 C 9,3 km/h (2 Bft)
18.11.2015 22:15 5,8 C 6,1 C 56 % 1020,1 hPa 0,0 mm 3,6 km/h (1 Bft) SW 225 -2,3 C 6,7 km/h (2 Bft)
18.11.2015 22:20 7,1 C 6,9 C 54 % 1020,1 hPa 0,0 mm 8,3 km/h (2 Bft) W-SW 247 -1,6 C 12,4 km/h (3 Bft)
18.11.2015 22:25 7,9 C 7,3 C 53 % 1020,1 hPa 0,0 mm 11,7 km/h (2 Bft) S-SW 202 -1,1 C 21,8 km/h (4 Bft)
18.11.2015 22:30 7,9 C 7,5 C 51 % 1020,2 hPa 0,0 mm 14,8 km/h (3 Bft) S-SW 202 -1,6 C 18,4 km/h (3 Bft)
18.11.2015 22:35 7,8 C 7,3 C 51 % 1020,2 hPa 0,0 mm 13,5 km/h (3 Bft) S-SO 157 -1,7 C 14,0 km/h (3 Bft)
18.11.2015 22:36 7,8 C 6,7 C 51 % 1020,2 hPa 0,0 mm 13,5 km/h (3 Bft) S-SO 157 -1,7 C 14,0 km/h (3 Bft)
18.11.2015 22:40 8,2 C 7,7 C 51 % 1020,2 hPa 0,0 mm 12,4 km/h (3 Bft) S-SO 157 -1,3 C 14,2 km/h (3 Bft)
18.11.2015 22:45 8,2 C 7,8 C 50 % 1020,2 hPa 0,0 mm 13,2 km/h (3 Bft) S 180 -1,6 C 20,7 km/h (4 Bft)
18.11.2015 22:50 8,2 C 7,8 C 51 % 1020,0 hPa 0,0 mm 12,4 km/h (3 Bft) SW 225 -1,3 C 13,5 km/h (3 Bft)
18.11.2015 22:55 8,4 C 7,9 C 51 % 1020,0 hPa 0,0 mm 11,7 km/h (2 Bft) SW 225 -1,1 C 11,4 km/h (2 Bft)
18.11.2015 23:00 8,6 C 8,1 C 51 % 1020,0 hPa 0,0 mm 10,4 km/h (2 Bft) S-SW 202 -1,0 C 7,3 km/h (2 Bft)
18.11.2015 23:05 8,5 C 8,1 C 51 % 1020,0 hPa 0,0 mm 9,6 km/h (2 Bft) SW 225 -1,0 C 7,8 km/h (2 Bft)
18.11.2015 23:10 8,4 C 8,0 C 52 % 1020,3 hPa 0,0 mm 8,3 km/h (2 Bft) W 270 -0,9 C 12,7 km/h (3 Bft)
18.11.2015 23:15 8,4 C 8,1 C 52 % 1020,3 hPa 0,0 mm 7,5 km/h (2 Bft) SW 225 -0,9 C 12,9 km/h (3 Bft)
18.11.2015 23:20 8,5 C 8,2 C 53 % 1020,3 hPa 0,0 mm 7,0 km/h (2 Bft) W-SW 247 -0,5 C 10,6 km/h (2 Bft)
18.11.2015 23:25 8,7 C 8,4 C 53 % 1020,3 hPa 0,0 mm 7,3 km/h (2 Bft) W-NW 292 -0,3 C 13,5 km/h (3 Bft)
18.11.2015 23:30 9,3 C 8,8 C 53 % 1020,5 hPa 0,0 mm 8,5 km/h (2 Bft) W-SW 247 0,2 C 7,8 km/h (2 Bft)
18.11.2015 23:35 9,4 C 8,9 C 53 % 1020,5 hPa 0,0 mm 9,1 km/h (2 Bft) W 270 0,3 C 11,1 km/h (2 Bft)
18.11.2015 23:40 9,7 C 9,2 C 52 % 1020,5 hPa 0,0 mm 10,6 km/h (2 Bft) W-SW 247 0,3 C 24,3 km/h (4 Bft)
18.11.2015 23:45 9,7 C 9,2 C 52 % 1020,5 hPa 0,0 mm 11,1 km/h (2 Bft) W-SW 247 0,3 C 12,9 km/h (3 Bft)
18.11.2015 23:50 10,1 C 9,6 C 52 % 1020,8 hPa 0,0 mm 13,5 km/h (3 Bft) W 270 0,7 C 23,3 km/h (4 Bft)
18.11.2015 23:55 10,3 C 9,8 C 51 % 1020,8 hPa 0,0 mm 16,3 km/h (3 Bft) NW 315 0,6 C 29,5 km/h (5 Bft)
_ Min-Zeit 20:05 20:05 17:10 05:05 - 11:55 - - 22:10 21:35
Minimum _ 4,8 C 5,5 C 49 % 1015,8 hPa - 0,0 km/h (0 Bft) - - -3,4 C 0,0 km/h (0 Bft)
_ Max-Zeit 01:30 14:00 10:20 14:05 23:55 06:00 - - 04:15 06:45
Maximum _ 15,9 C 18,0 C 68 % 1022,6 hPa 0,0 mm 23,0 km/h
W (4 Bft)
- - 6,9 C 69,9 km/h
W-NW (8 Bft)
Durchschnitt _ 11,9 C 11,9 C 57 % 1019,0 hPa #0,0 mm 11,6 km/h (2 Bft) W-SW - 3,6 C 16,1 km/h (3 Bft)